Miscellaneous Local Product
Issued by NWS North Platte, NE

Home | Current Version | Previous Version | Text Only | Print | Product List | Glossary On
Versions: 1 2 3 4 5 6 7 8 9 10 11 12 13 14 15 16 17 18 19 20 21 22 23 24 25 26 27 28 29 30 31 32 33 34 35 36 37 38 39 40 41 42 43 44 45 46 47 48 49 50
414
AXUS43 KLBF 250110
MISLBF


WESTERN AND NORTH CENTRAL NEBRASKA HOURLY WEATHER ROUNDUP
NATIONAL WEATHER SERVICE NORTH PLATTE NE
800 PM CDT SAT JUN 24 2017

NOTE: "FAIR" INDICATES FEW OR NO CLOUDS BELOW 12,000 FEET WITH NO
SIGNIFICANT WEATHER AND/OR OBSTRUCTIONS TO VISIBILITY.

NOTE: STATIONS NOT REPORTING VARIABLES SUCH AS SKY/WEATHER OR
PRESSURE ARE PROVIDED BY RAWS AND APRS NETWORKS AND ARE NOT UNDER
NATIONAL WEATHER SERVICE QUALITY CONTROL.

...OBSERVATIONS IN AND NEAR THE EASTERN PANHANDLE OF NEBRASKA...

CITY           SKY/WX    TMP DP  RH WIND       PRES   REMARKS
PINE RIDGE     SUNNY     72  35  25 N9        30.26R
GORDON         FAIR      71  35  27 NE7       30.26S
CHADRON        SUNNY     73  33  23 NE12      30.24R
ALLIANCE       MOSUNNY   71  36  27 E7        30.27R
SIDNEY         MOSUNNY   72  35  25 E8        30.28S
CRESCENT LAKE    N/A     73  36  26 E6G15       N/A
$$

...OBSERVATIONS IN NORTHERN NEBRASKA AND FAR SOUTHERN SOUTH DAKOTA...

CITY           SKY/WX    TMP DP  RH WIND       PRES   REMARKS
WINNER         FAIR      73  31  21 N15G22    30.20R
VALENTINE      SUNNY     75  30  19 N13G21    30.22R
THEDFORD       MOSUNNY   73  37  26 NW14      30.24F
AINSWORTH      SUNNY     72  36  27 N14G21    30.22S
O`NEILL        SUNNY     72  38  28 NW16G23   30.19R
ORD            CLOUDY    71  36  27 W8        30.18F
BROKEN BOW     CLOUDY    71  38  29 W6        30.22S
VALENTINE NWR    N/A     73  34  24 N13G25      N/A
HALSEY           N/A     71  33  25 NW6G14      N/A
BUTTE            N/A     69  34  27 N16G25      N/A
CHAMBERS         N/A     74  34  23 CALM        N/A
EWING            N/A     71  40  32 N9          N/A
$$

...OBSERVATIONS IN SOUTHWEST NEBRASKA AND FAR NORTHEAST COLORADO...

CITY           SKY/WX    TMP DP  RH WIND       PRES   REMARKS
WRAY           FAIR      72  45  37 E12       30.26R
IMPERIAL       SUNNY     72  43  35 SE5       30.25R
OGALLALA       SUNNY     76  35  22 S5        30.24S
NORTH PLATTE   SUNNY     75  36  24 NE13      30.23R
MCCOOK         CLOUDY    69  51  52 E6        30.23S
LEXINGTON      SUNNY     75  42  30 NW5       30.22S
STAPLETON        N/A     71  37  29 CALM        N/A
GOTHENBURG       N/A     76  37  24 W3          N/A
CALLAWAY         N/A     74  39  27 N12         N/A
$$

...OBSERVATIONS IN CENTRAL LINCOLN COUNTY AREA...

CITY           SKY/WX    TMP DP  RH WIND       PRES   REMARKS
N.P. AIRPORT   SUNNY     75  36  24 NE13      30.23R
N.P. DOWNTOWN    N/A     73  38  28 NE7G14      N/A
N.P. SOUTHEAST   N/A     74  38  26 MISG        N/A
N.P. HILLCREST   N/A     71  34  26 NE13        N/A
$$

...SOME OBSERVATIONS FROM AROUND THE REGION...

CITY           SKY/WX    TMP DP  RH WIND       PRES   REMARKS
DENVER         PTSUNNY   71  46  40 NE17      30.27R
LIMON          PTSUNNY   70  45  40 SE12      30.28R
ASPEN          SUNNY     76  21  12 NW9       30.31R
LARAMIE        CLOUDY    65  37  35 E17       30.37R
CASPER         SUNNY     68  29  23 E7        30.29S
CHEYENNE       CLOUDY    65  36  34 E9        30.34R
SCOTTSBLUFF    SUNNY     70  38  31 NE12      30.26R
GRAND ISLAND   CLOUDY    74  39  28 NW9       30.21R
OMAHA          CLOUDY    74  44  34 NW8       30.11R
SIOUX FALLS    MOSUNNY   66  42  41 NW17G24   30.14R
PIERRE         SUNNY     67  37  33 N18       30.20R
RAPID CITY     SUNNY     72  29  20 N14G28    30.26R
BISMARCK       MOSUNNY   62  38  40 N15G25    30.25R
KANSAS CITY    MOCLDY    72  51  47 SW5       30.16S
HILL CITY      CLOUDY    73  50  44 E9        30.22R
WICHITA        CLEAR     78  54  43 E12       30.16R
DODGE CITY     CLOUDY    76  53  44 SE6       30.20S
OKLAHOMA CITY  MOCLDY    80  52  37 E9        30.15R
DALLAS         PTCLDY    81  66  60 E9        30.08R
AMARILLO       CLOUDY    69  60  73 E12       30.22S
$$




USA.gov is the U.S. government's official web portal to all federal, state and local government web resources and services.